Regional Weather Roundup
Issued by NWS

Home | Current Version | Previous Version | Text Only | Print | Product List | Glossary On
Versions: 1 2 3 4 5 6 7 8 9 10 11 12 13 14 15 16 17 18 19 20 21 22 23 24 25 26 27 28 29 30 31 32 33 34 35 36 37 38 39 40 41 42 43 44 45 46 47 48 49 50
000
ASUS44 KMEG 312310
RWRTN
TENNESSEE HOURLY STATE WEATHER ROUNDUP
NATIONAL WEATHER SERVICE MEMPHIS TN
600 PM CDT TUE MAY 31 2016

TNZ002-004-019-021-049-052-054-088>092-010000-
WEST TENNESSEE

CITY           SKY/WX    TMP DP  RH WIND       PRES   REMARKS
MEMPHIS INTL   MOSUNNY   85  66  53 S9        29.87S
NWS MEMPHIS      N/A     83 N/A N/A MISG        N/A
JACKSON        SUNNY     83  66  56 CALM      29.88F
DYERSBURG      SUNNY     84  63  48 S3        29.86F
UNION CITY     SUNNY     84  66  54 E6        29.86F
PARIS          SUNNY     81  64  57 S3        29.89F
LEXINGTON      SUNNY     82  64  54 SE5       29.88F
$$

TNZ008-025-027-028-033-062-065-066-010000-
NORTH MIDDLE TENNESSEE

CITY           SKY/WX    TMP DP  RH WIND       PRES   REMARKS
NASHVILLE      MOSUNNY   88  60  38 NE8       29.89F
CLARKSVILLE    SUNNY     85  61  44 SE6       29.89S
SMYRNA         MOSUNNY   89  62  40 NE9       29.89F
COOKEVILLE     SUNNY     82  66  57 NE3       29.92S
CROSSVILLE     MOSUNNY   80  63  55 NE6       29.98S
$$

TNZ061-075-076-078-094-096-097-010000-
SOUTH MIDDLE TENNESSEE

CITY           SKY/WX    TMP DP  RH WIND       PRES   REMARKS
FAYETTEVILLE   SUNNY     84  63  48 NW5       29.90F
TULLAHOMA      SUNNY     84  57  39 CALM      29.93S
WINCHESTER     SUNNY     88  57  35 W3        29.91S
MCMINNVILLE    SUNNY     88  61  40 CALM      29.91F
COLUMBIA       SUNNY     88  64  45 CALM      29.88F
SHELBYVILLE    SUNNY     90  61  37 NE6       29.91S
$$

TNZ017-018-042-046-047-010000-
NORTHEAST TENNESSEE

CITY           SKY/WX    TMP DP  RH WIND       PRES   REMARKS
TRI CITIES     PTSUNNY   81  60  48 CALM      29.96R
$$

TNZ012-013-036-069-073-074-010000-
CENTRAL EAST TENNESSEE

CITY           SKY/WX    TMP DP  RH WIND       PRES   REMARKS
KNOXVILLE      MOSUNNY   87  60  40 VRB6      29.90F
OAK RIDGE      SUNNY     87  60  40 CALM      29.92F
GATLINBURG     PTSUNNY   84  61  45 VRB3      29.91S
$$

TNZ083-085-099-010000-
SOUTHEAST TENNESSEE

CITY           SKY/WX    TMP DP  RH WIND       PRES   REMARKS
CHATTANOOGA    MOSUNNY   91  55  29 NW7       29.88F
$$

SKY/WX REPORTED AS FAIR MEANS FEW OR NO CLOUDS BELOW
12 THOUSAND FEET.





USA.gov is the U.S. government's official web portal to all federal, state and local government web resources and services.